| time (UTC) | temp F | wind direction | speed knots | gust knots | rain 1hr in | rain 24hr in | rain mn in | humidity % | barometer mb |
| 20260905060922 | 74 | 269 | 0.0 | 0.0 | 0.00 | 0.00 | 0.00 | 89 | 1011.3 |
| 20260905055946 | 74 | 269 | 0.0 | 0.0 | 0.00 | 0.00 | 0.00 | 88 | 1011.4 |
| 20260905054914 | 75 | 269 | 0.0 | 0.0 | 0.00 | 0.00 | 0.00 | 88 | 1011.4 |
| 20260905052723 | 75 | 269 | 0.0 | 0.0 | 0.00 | 0.01 | 0.00 | 86 | 1011.6 |
| 20260905051720 | 76 | 269 | 0.0 | 0.0 | 0.00 | 0.01 | 0.00 | 86 | 1011.7 |
| 20260905050648 | 76 | 269 | 0.0 | 0.0 | 0.00 | 0.02 | 0.00 | 85 | 1011.8 |
| 20260905045617 | 76 | 269 | 0.0 | 0.0 | 0.00 | 0.02 | 0.00 | 85 | 1011.9 |
| 20260905043417 | 76 | 267 | 0.0 | 3.5 | 0.00 | 0.02 | 0.00 | 85 | 1011.9 |
| 20260905042407 | 76 | 273 | 0.0 | 4.3 | 0.00 | 0.02 | 0.00 | 85 | 1012.0 |
| 20260905040239 | 76 | 256 | 0.0 | 0.9 | 0.00 | 0.09 | 0.00 | 86 | 1012.1 |
| 20260905034157 | 76 | 256 | 0.0 | 0.0 | 0.00 | 0.85 | 0.09 | 87 | 1012.3 |
| 20260905033202 | 76 | 257 | 0.0 | 0.0 | 0.00 | 0.93 | 0.09 | 86 | 1012.3 |
| 20260905032136 | 76 | 257 | 0.0 | 0.9 | 0.00 | 0.93 | 0.09 | 86 | 1012.2 |
| 20260905031104 | 76 | 257 | 0.0 | 2.6 | 0.00 | 0.93 | 0.09 | 86 | 1012.3 |
| 20260905030104 | 76 | 256 | 0.0 | 0.0 | 0.00 | 0.93 | 0.09 | 86 | 1012.2 |
| 20260905025116 | 76 | 256 | 0.0 | 0.0 | 0.00 | 0.93 | 0.09 | 87 | 1012.2 |
| 20260905024129 | 76 | 256 | 0.0 | 0.0 | 0.00 | 0.93 | 0.09 | 86 | 1012.3 |
| 20260905023146 | 76 | 256 | 0.0 | 0.0 | 0.00 | 0.93 | 0.09 | 86 | 1012.3 |
| 20260905021017 | 77 | 256 | 0.0 | 0.0 | 0.00 | 0.93 | 0.09 | 86 | 1011.9 |
| 20260905020032 | 77 | 256 | 0.0 | 0.0 | 0.00 | 0.93 | 0.09 | 85 | 1011.9 |
| 20260905015048 | 77 | 256 | 0.0 | 0.0 | 0.00 | 0.93 | 0.09 | 85 | 1012.0 |
| 20260905014025 | 77 | 256 | 0.0 | 0.9 | 0.00 | 0.93 | 0.09 | 84 | 1011.9 |
| 20260905010800 | 78 | 256 | 0.0 | 0.0 | 0.00 | 0.93 | 0.09 | 83 | 1011.4 |
| 20260905005747 | 78 | 256 | 0.0 | 0.0 | 0.00 | 0.93 | 0.09 | 83 | 1011.1 |
| 20260905004746 | 79 | 256 | 0.0 | 0.0 | 0.00 | 0.93 | 0.09 | 82 | 1011.2 |
| 20260905001456 | 79 | 255 | 0.0 | 0.0 | 0.00 | 0.93 | 0.09 | 81 | 1011.2 |
| 20260904235300 | 80 | 255 | 0.0 | 3.5 | 0.00 | 0.93 | 0.09 | 80 | 1011.1 |
| 20260904233121 | 80 | 263 | 0.0 | 0.0 | 0.00 | 0.93 | 0.09 | 83 | 1011.4 |
| 20260904232136 | 80 | 263 | 0.0 | 0.0 | 0.00 | 0.93 | 0.09 | 83 | 1011.4 |
| 20260904231108 | 81 | 263 | 0.0 | 0.0 | 0.00 | 0.93 | 0.09 | 81 | 1011.4 |
| 20260904224939 | 81 | 263 | 0.0 | 0.0 | 0.00 | 0.93 | 0.09 | 80 | 1011.2 |
| 20260904222845 | 82 | 263 | 0.0 | 0.9 | 0.00 | 0.93 | 0.09 | 80 | 1011.4 |
| 20260904221854 | 82 | 263 | 0.0 | 0.0 | 0.00 | 0.93 | 0.09 | 80 | 1011.3 |
| 20260904220831 | 82 | 263 | 0.0 | 0.9 | 0.00 | 0.93 | 0.09 | 80 | 1011.6 |
| 20260904215818 | 82 | 263 | 0.0 | 0.0 | 0.00 | 0.93 | 0.09 | 81 | 1011.6 |
| 20260904214808 | 82 | 263 | 0.0 | 0.0 | 0.00 | 0.93 | 0.09 | 80 | 1011.7 |
| 20260904213821 | 82 | 263 | 0.0 | 0.0 | 0.00 | 0.93 | 0.09 | 79 | 1011.8 |
| 20260904212800 | 82 | 263 | 0.0 | 0.0 | 0.00 | 0.93 | 0.09 | 78 | 1011.8 |
| 20260904211821 | 83 | 277 | 0.9 | 6.1 | 0.00 | 0.93 | 0.09 | 79 | 1012.1 |
| 20260904210750 | 84 | 291 | 0.0 | 2.6 | 0.00 | 0.93 | 0.09 | 80 | 1012.2 |
| 20260904205748 | 85 | 5 | 0.0 | 0.0 | 0.00 | 0.93 | 0.09 | 78 | 1012.3 |
| 20260904204742 | 86 | 5 | 0.0 | 0.0 | 0.00 | 0.93 | 0.09 | 75 | 1012.1 |
| 20260904203727 | 87 | 5 | 0.0 | 0.0 | 0.00 | 0.93 | 0.09 | 69 | 1012.2 |
| 20260904202713 | 87 | 5 | 0.0 | 0.0 | 0.00 | 0.93 | 0.09 | 67 | 1012.4 |
| 20260904201710 | 88 | 5 | 0.0 | 0.0 | 0.00 | 0.93 | 0.09 | 66 | 1012.3 |
| 20260904200709 | 88 | 5 | 0.0 | 0.9 | 0.00 | 0.93 | 0.09 | 64 | 1012.3 |
| 20260904195710 | 88 | 5 | 0.0 | 0.9 | 0.00 | 0.93 | 0.09 | 64 | 1011.9 |
| 20260904193617 | 89 | 5 | 0.0 | 0.0 | 0.00 | 0.93 | 0.09 | 62 | 1011.9 |
| 20260904192613 | 89 | 5 | 0.0 | 3.5 | 0.00 | 0.93 | 0.09 | 61 | 1012.0 |
| 20260904191550 | 91 | 19 | 0.0 | 2.6 | 0.00 | 0.93 | 0.09 | 58 | 1011.9 |
| 20260904190533 | 92 | 146 | 0.0 | 1.7 | 0.00 | 0.93 | 0.09 | 58 | 1012.0 |
| 20260904185515 | 91 | 143 | 0.0 | 0.9 | 0.00 | 0.93 | 0.09 | 59 | 1012.2 |
| 20260904184513 | 90 | 350 | 0.0 | 2.6 | 0.00 | 0.93 | 0.09 | 57 | 1012.6 |
| 20260904183513 | 92 | 167 | 0.0 | 3.5 | 0.00 | 0.93 | 0.09 | 57 | 1012.8 |
| 20260904182515 | 92 | 349 | 0.0 | 4.3 | 0.00 | 0.93 | 0.09 | 55 | 1012.9 |
| 20260904181534 | 93 | 311 | 0.0 | 4.3 | 0.00 | 0.93 | 0.09 | 52 | 1012.9 |
| 20260904180512 | 93 | 243 | 0.0 | 0.9 | 0.00 | 0.93 | 0.09 | 53 | 1013.0 |
| 20260904175500 | 92 | 245 | 0.9 | 3.5 | 0.00 | 0.93 | 0.09 | 53 | 1013.0 |
| 20260904174444 | 91 | 320 | 0.0 | 3.5 | 0.00 | 0.93 | 0.09 | 55 | 1013.1 |
| 20260904172402 | 92 | 258 | 0.9 | 4.3 | 0.00 | 0.93 | 0.09 | 54 | 1013.3 |
| 20260904171330 | 91 | 346 | 0.0 | 4.3 | 0.00 | 0.93 | 0.09 | 57 | 1013.4 |
| 20260904170256 | 90 | 349 | 0.9 | 4.3 | 0.00 | 0.93 | 0.09 | 57 | 1013.3 |
| 20260904164130 | 90 | 337 | 0.0 | 2.6 | 0.00 | 0.93 | 0.09 | 59 | 1013.6 |
| 20260904163118 | 91 | 28 | 0.9 | 5.2 | 0.00 | 0.93 | 0.09 | 58 | 1013.7 |
| 20260904162134 | 91 | 302 | 0.9 | 5.2 | 0.00 | 0.93 | 0.09 | 58 | 1013.9 |
| 20260904161102 | 89 | 339 | 0.0 | 3.5 | 0.00 | 0.93 | 0.09 | 62 | 1014.0 |
| 20260904160108 | 89 | 313 | 0.0 | 5.2 | 0.00 | 0.93 | 0.09 | 63 | 1013.9 |
| 20260904155108 | 90 | 307 | 1.7 | 5.2 | 0.00 | 0.93 | 0.09 | 59 | 1014.0 |
| 20260904154041 | 88 | 338 | 0.0 | 5.2 | 0.00 | 0.93 | 0.09 | 64 | 1013.9 |
| 20260904153032 | 85 | 355 | 0.9 | 4.3 | 0.00 | 0.93 | 0.09 | 69 | 1013.9 |
| 20260904150841 | 86 | 314 | 0.9 | 3.5 | 0.00 | 0.93 | 0.09 | 65 | 1014.1 |
| 20260904145829 | 87 | 314 | 0.9 | 4.3 | 0.00 | 0.93 | 0.09 | 65 | 1014.2 |
| 20260904144756 | 84 | 335 | 0.9 | 4.3 | 0.00 | 0.93 | 0.09 | 70 | 1014.4 |
| 20260904142608 | 85 | 306 | 0.0 | 2.6 | 0.00 | 0.93 | 0.09 | 70 | 1014.3 |
| 20260904105332 | 72 | 343 | 0.0 | 0.0 | 0.00 | 0.93 | 0.09 | 94 | 1013.8 |
| 20260904104326 | 72 | 343 | 0.0 | 0.0 | 0.00 | 0.93 | 0.09 | 95 | 1013.9 |
| 20260904103346 | 72 | 343 | 0.0 | 0.0 | 0.00 | 0.93 | 0.09 | 95 | 1014.0 |
| 20260904102331 | 72 | 343 | 0.0 | 0.0 | 0.00 | 0.93 | 0.09 | 95 | 1013.6 |
| 20260904101314 | 72 | 343 | 0.0 | 0.0 | 0.00 | 0.93 | 0.09 | 95 | 1013.8 |
| 20260904100338 | 72 | 343 | 0.0 | 1.7 | 0.00 | 0.93 | 0.09 | 94 | 1013.8 |
| 20260904095352 | 72 | 340 | 0.0 | 2.6 | 0.00 | 0.93 | 0.09 | 95 | 1013.5 |
| 20260904094347 | 72 | 215 | 0.0 | 0.0 | 0.00 | 0.93 | 0.09 | 94 | 1012.8 |
| 20260904093317 | 72 | 215 | 0.0 | 0.0 | 0.00 | 0.93 | 0.09 | 94 | 1012.7 |
| 20260904092248 | 72 | 208 | 0.0 | 0.0 | 0.00 | 0.93 | 0.09 | 94 | 1012.4 |
| 20260904091214 | 72 | 208 | 0.0 | 0.0 | 0.00 | 0.93 | 0.09 | 94 | 1012.6 |
| 20260904090226 | 72 | 208 | 0.0 | 0.0 | 0.00 | 0.93 | 0.09 | 94 | 1012.7 |
| 20260904084046 | 72 | 208 | 0.0 | 0.0 | 0.00 | 0.93 | 0.09 | 94 | 1012.8 |
| 20260904083103 | 72 | 208 | 0.0 | 0.0 | 0.00 | 0.93 | 0.09 | 94 | 1012.9 |
| 20260904082032 | 72 | 208 | 0.0 | 0.0 | 0.00 | 0.93 | 0.09 | 94 | 1013.0 |
| 20260904081005 | 72 | 208 | 0.0 | 0.0 | 0.00 | 0.93 | 0.09 | 94 | 1012.9 |
| 20260904075949 | 72 | 208 | 0.0 | 0.0 | 0.00 | 0.93 | 0.09 | 94 | 1013.0 |
| 20260904074934 | 72 | 208 | 0.0 | 0.0 | 0.00 | 0.93 | 0.09 | 94 | 1013.1 |
| 20260904073911 | 72 | 208 | 0.0 | 0.0 | 0.00 | 0.93 | 0.09 | 94 | 1013.2 |
| 20260904064232 | 72 | 270 | 0.0 | 0.0 | 0.00 | 0.93 | 0.09 | 94 | 1012.8 |
| 20260904063235 | 72 | 270 | 0.0 | 0.0 | 0.00 | 0.93 | 0.09 | 94 | 1012.6 |
| 20260904062219 | 72 | 270 | 0.0 | 0.0 | 0.00 | 0.93 | 0.09 | 93 | 1012.7 |
| 20260904061236 | 72 | 270 | 0.0 | 0.0 | 0.00 | 0.93 | 0.09 | 93 | 1012.5 |